Date String (YYYY-MM-DD hh:mm:ss) UTC,Instrument flags,Ambient pressure (hPa),Sample flow (lpm),Bypass flow (lpm),Sample temperature (°C),Ambient temperature (°C),ASC tube jacket temperature (°C),LED temperature (°C),Box temperature (°C),Sample RH (%),Span deviation,Mass concentration (μg/m³),Mass concentration (μg/m³),Mass concentration (μg/m³)
DateTimeUTC,F1_M11,P_M11,Q1_M11,Q2_M11,T1_M11,T2_M11,T3_M11,T4_M11,T5_M11,U1_M11,ZSPAN_M11,X0_M11,X2_M11,X1_M11
2022-08-10 14:00:00,,0834.4,5.01,0.00,29.9,28.9,00.0,38.7,31.9,29.2,0000.0,0011.46,0005.67,0004.88
2022-08-10 14:01:00,,0834.4,5.00,0.00,29.9,28.9,00.0,38.7,31.9,29.0,0000.0,0011.26,0005.72,0004.90
2022-08-10 14:02:00,,0834.4,5.00,0.00,29.9,28.7,00.0,38.7,31.8,28.8,0000.0,0011.64,0005.71,0004.90
2022-08-10 14:03:00,,0834.3,5.01,0.00,29.9,28.0,00.0,38.6,31.7,27.7,0000.0,0011.48,0005.67,0004.89
2022-08-10 14:04:00,,0834.3,5.00,0.00,29.9,27.7,00.0,38.6,31.6,28.4,0000.0,0011.08,0005.67,0004.89
2022-08-10 14:05:00,,0834.4,4.99,0.00,29.8,27.6,00.0,38.6,31.5,29.2,0000.0,0010.99,0005.73,0004.90
2022-08-10 14:06:00,,0834.3,5.01,0.00,29.7,27.7,00.0,38.6,31.5,28.0,0000.0,0010.84,0005.74,0004.91
2022-08-10 14:07:00,,0834.3,4.99,0.00,29.7,27.8,00.0,38.6,31.5,28.9,0000.0,0010.65,0005.75,0004.91
2022-08-10 14:08:00,,0834.3,5.01,0.00,29.7,28.0,00.0,38.6,31.5,29.7,0000.0,0010.53,0005.74,0004.91
2022-08-10 14:09:00,,0834.3,4.99,0.00,29.7,28.1,00.0,38.6,31.6,30.1,0000.0,0010.39,0005.71,0004.92
2022-08-10 14:10:00,,0834.3,5.00,0.00,29.7,28.2,00.0,38.6,31.6,30.1,0000.0,0010.40,0005.71,0004.93
2022-08-10 14:11:00,,0834.3,5.00,0.00,29.7,28.3,00.0,38.6,31.6,30.5,0000.0,0010.36,0005.72,0004.95
2022-08-10 14:12:00,,0834.3,5.00,0.00,29.8,28.5,00.0,38.6,31.7,30.7,0000.0,0010.52,0005.74,0004.96
2022-08-10 14:13:00,,0834.3,5.01,0.00,29.8,28.6,00.0,38.6,31.7,30.9,0000.0,0010.16,0005.77,0004.97
2022-08-10 14:14:00,,0834.3,5.01,0.00,29.8,28.6,00.0,38.6,31.8,30.9,0000.0,0010.89,0005.82,0004.98
2022-08-10 14:15:00,,0834.4,5.00,0.00,29.8,28.7,00.0,38.6,31.8,31.6,0000.0,0011.45,0005.77,0004.99
2022-08-10 14:16:00,,0834.4,4.99,0.00,29.9,28.8,00.0,38.6,31.8,31.8,0000.0,0011.37,0005.77,0005.01
2022-08-10 14:17:00,,0834.4,5.00,0.00,29.9,28.8,00.0,38.6,31.8,31.5,0000.0,0011.32,0005.83,0005.02
2022-08-10 14:18:00,,0834.4,5.00,0.00,29.9,28.3,00.0,38.6,31.7,31.6,0000.0,0011.51,0005.88,0005.05
2022-08-10 14:19:00,,0834.4,4.99,0.00,29.8,27.7,00.0,38.6,31.6,31.5,0000.0,0011.74,0005.95,0005.08
2022-08-10 14:20:00,,0834.4,5.00,0.00,29.8,27.6,00.0,38.5,31.5,31.1,0000.0,0011.70,0005.95,0005.08
2022-08-10 14:21:00,,0834.4,5.00,0.00,29.7,27.6,00.0,38.5,31.4,32.2,0000.0,0011.78,0006.01,0005.10
2022-08-10 14:22:00,,0834.4,4.99,0.00,29.7,27.7,00.0,38.5,31.4,32.2,0000.0,0011.80,0006.00,0005.11
2022-08-10 14:23:00,,0834.4,5.01,0.00,29.7,27.8,00.0,38.5,31.5,32.3,0000.0,0011.54,0005.98,0005.12
2022-08-10 14:24:00,,0834.4,4.99,0.00,29.7,28.0,00.0,38.5,31.5,32.0,0000.0,0011.47,0005.99,0005.14
2022-08-10 14:25:00,,0834.4,5.01,0.00,29.7,28.1,00.0,38.5,31.5,31.7,0000.0,0010.90,0006.01,0005.15
2022-08-10 14:26:00,,0834.4,4.99,0.00,29.7,28.2,00.0,38.5,31.6,32.2,0000.0,0010.36,0006.07,0005.17
2022-08-10 14:27:00,,0834.4,5.00,0.00,29.7,28.4,00.0,38.5,31.6,33.0,0000.0,0010.62,0006.07,0005.18
2022-08-10 14:28:00,,0834.4,4.99,0.00,29.7,28.5,00.0,38.5,31.7,32.9,0000.0,0011.69,0006.08,0005.18
2022-08-10 14:29:00,,0834.4,5.01,0.00,29.8,28.6,00.0,38.5,31.7,33.0,0000.0,0012.29,0006.05,0005.18
2022-08-10 14:30:00,,0834.4,5.00,0.00,29.8,28.6,00.0,38.6,31.7,33.4,0000.0,0012.58,0006.05,0005.19
2022-08-10 14:31:00,,0834.4,5.00,0.00,29.8,28.7,00.0,38.6,31.7,33.7,0000.0,0013.20,0006.09,0005.21
2022-08-10 14:32:00,,0834.4,4.99,0.00,29.8,28.8,00.0,38.6,31.8,33.8,0000.0,0013.57,0006.12,0005.22
2022-08-10 14:33:00,,0834.4,5.00,0.00,29.9,28.8,00.0,38.6,31.8,34.0,0000.0,0013.57,0006.13,0005.23
2022-08-10 14:34:00,,0834.4,5.01,0.00,29.9,28.3,00.0,38.6,31.7,33.7,0000.0,0013.77,0006.16,0005.24
2022-08-10 14:35:00,,0834.4,4.99,0.00,29.8,27.7,00.0,38.5,31.5,33.8,0000.0,0014.40,0006.19,0005.25
2022-08-10 14:36:00,,0834.4,5.00,0.00,29.8,27.5,00.0,38.5,31.5,34.0,0000.0,0015.07,0006.21,0005.26
2022-08-10 14:37:00,,0834.4,5.01,0.00,29.7,27.6,00.0,38.5,31.4,34.7,0000.0,0015.16,0006.22,0005.27
2022-08-10 14:38:00,,0834.4,4.99,0.00,29.7,27.7,00.0,38.5,31.4,34.8,0000.0,0015.23,0006.24,0005.28
2022-08-10 14:39:00,,0834.4,5.00,0.00,29.7,27.8,00.0,38.5,31.5,35.4,0000.0,0015.25,0006.25,0005.31
2022-08-10 14:40:00,,0834.5,5.00,0.00,29.9,28.0,00.0,38.5,31.7,35.0,0000.0,0014.85,0006.28,0005.31
2022-08-10 14:41:00,,0834.5,4.99,0.00,30.2,28.1,00.0,38.5,31.8,34.2,0000.0,0015.20,0006.26,0005.30
2022-08-10 14:42:00,,0834.6,4.99,0.00,30.3,28.3,00.0,38.5,31.8,33.7,0000.0,0014.85,0006.25,0005.29
2022-08-10 14:43:00,,0834.6,5.00,0.00,30.4,28.4,00.0,38.6,31.8,33.5,0000.0,0014.69,0006.22,0005.28
2022-08-10 14:44:00,,0834.6,5.01,0.00,30.5,28.5,00.0,38.6,31.9,33.3,0000.0,0014.58,0006.19,0005.27
2022-08-10 14:45:00,,0834.7,4.99,0.00,30.5,28.6,00.0,38.7,31.9,33.0,0000.0,0014.95,0006.19,0005.27
2022-08-10 14:46:00,,0834.7,4.99,0.00,30.5,28.7,00.0,38.7,31.9,33.2,0000.0,0014.55,0006.22,0005.27
2022-08-10 14:47:00,,0834.7,5.01,0.00,30.5,28.8,00.0,38.8,31.9,33.2,0000.0,0014.65,0006.24,0005.28
2022-08-10 14:48:00,,0834.7,5.00,0.00,30.6,28.5,00.0,38.8,31.9,33.4,0000.0,0014.62,0006.26,0005.29
2022-08-10 14:49:00,,0834.7,5.01,0.00,30.5,27.9,00.0,38.8,31.7,33.7,0000.0,0014.91,0006.33,0005.30
2022-08-10 14:50:00,,0834.7,4.98,0.00,30.4,27.6,00.0,38.8,31.7,33.9,0000.0,0014.52,0006.33,0005.29
2022-08-10 14:51:00,,0834.7,5.01,0.00,30.4,27.6,00.0,38.8,31.6,33.9,0000.0,0014.45,0006.35,0005.31
2022-08-10 14:52:00,,0834.7,5.01,0.00,30.3,27.7,00.0,38.8,31.6,34.6,0000.0,0013.97,0006.38,0005.34
2022-08-10 14:53:00,,0834.7,4.99,0.00,30.2,27.8,00.0,38.8,31.6,34.2,0000.0,0014.41,0006.48,0005.36
2022-08-10 14:54:00,,0834.7,5.01,0.00,30.2,28.0,00.0,38.8,31.7,33.1,0000.0,0014.35,0006.52,0005.37
2022-08-10 14:55:00,,0834.7,4.99,0.00,30.2,28.1,00.0,38.8,31.7,33.7,0000.0,0014.57,0006.56,0005.40
2022-08-10 14:56:00,,0834.7,5.00,0.00,30.2,28.2,00.0,38.8,31.7,33.8,0000.0,0014.01,0006.58,0005.41
2022-08-10 14:57:00,,0834.7,5.00,0.00,30.2,28.4,00.0,38.8,31.7,33.9,0000.0,0014.18,0006.56,0005.43
2022-08-10 14:58:00,,0834.7,5.00,0.00,30.2,28.5,00.0,38.9,31.8,34.2,0000.0,0013.37,0006.56,0005.44
2022-08-10 14:59:00,,0834.7,4.99,0.00,30.2,28.6,00.0,38.9,31.8,34.0,0000.0,0013.57,0006.56,0005.44
